Location: Allison's Woods
(35.8809°N, 80.8140°W)
Time: 13:53:29
(UTC-04:00)

Iridium 39 - Visible Passes

Search period start: 29 July 2016 00:00
Search period end: 08 August 2016 00:00
Orbit: 726 x 751 km, 86.4° (Epoch: 29 July)

Date Brightness Start Highest point End Pass type
(mag) Time Alt. Az. Time Alt. Az. Time Alt. Az.
29 Jul 8.3 01:56:14 10° NE 01:58:37 16° ENE 01:58:37 16° ENE visible
29 Jul 6.9 03:34:44 10° NNW 03:38:15 37° NW 03:38:15 37° NW visible
30 Jul 6.9 02:49:30 10° N 02:53:03 44° NNE 02:53:03 44° NNE visible
31 Jul 7.9 02:05:04 10° NNE 02:07:52 23° NE 02:07:52 23° NE visible
31 Jul 7.6 03:44:53 10° NNW 03:47:30 23° NW 03:47:30 23° NW visible
01 Aug 7.1 02:59:13 10° N 03:02:19 37° NNW 03:02:19 37° NNW visible
02 Aug 7.7 02:14:20 10° NNE 02:17:09 29° NNE 02:17:09 29° NNE visible
02 Aug 8.1 03:55:27 10° NW 03:56:47 14° NW 03:56:47 14° NW visible
03 Aug 8.4 01:30:28 10° NE 01:31:59 15° NE 01:31:59 15° NE visible
03 Aug 7.6 03:09:09 10° NNW 03:11:36 26° NNW 03:11:36 26° NNW visible
04 Aug 7.6 02:23:52 10° N 02:26:28 31° N 02:26:28 31° N visible
05 Aug 8.2 01:39:22 10° NNE 01:41:20 20° NE 01:41:20 20° NE visible
05 Aug 8.0 03:19:20 10° NNW 03:20:58 18° NW 03:20:58 18° NW visible
06 Aug 7.8 02:33:36 10° N 02:35:49 26° NNW 02:35:49 26° NNW visible
07 Aug 8.1 01:48:40 10° N 01:50:42 23° NNE 01:50:42 23° NNE visible
07 Aug 8.4 03:30:00 10° NW 03:30:20 11° NW 03:30:20 11° NW visible
